Powrót do katalogu

CZ-6A DEB

AktywnyPO
NORAD 61302·DEBRIS·🇨🇳 China

Wystrzelony Aug 6, 2024 z Taiyuan Satellite Launch Center

Loading…

Następne Przeloty (najbliższe 24 godziny)

TLE

ŚwieżeSource: Space-Track

Epoka: Sep 13, 2026, 22:28 UTC

1 61302U 24140TP  26256.93668720  .00006319  00000-0  12897-2 0  9993
2 61302  88.8914 249.7962 0056284 330.9034  28.9044 14.59828912108452

Śledź CZ-6A DEB w czasie rzeczywistym z AllMySat

Download on the App Store